Location: Cedar Falls
(42.5280°N, 92.4450°W)
Time: 23:55:38
(UTC-05:00)

NOSS 3-1 (C) - Visible Passes

Search period start: 29 June 2016 00:00
Search period end: 09 July 2016 00:00
Orbit: 851 x 1357 km, 63.4° (Epoch: 26 June)

Date Brightness Start Highest point End Pass type
(mag) Time Alt. Az. Time Alt. Az. Time Alt. Az.
29 Jun 6.3 01:26:17 10° NW 01:29:50 15° NNW 01:33:36 10° NNE visible
29 Jun 6.6 03:20:16 10° NNW 03:24:04 15° NNE 03:28:04 10° NE visible
29 Jun 4.2 22:45:24 10° SW 22:51:14 56° NW 22:57:44 10° NNE visible
30 Jun 6.2 00:39:32 10° WNW 00:43:45 18° NNW 00:48:17 10° NNE visible
30 Jun 6.6 02:34:41 10° NNW 02:37:51 13° N 02:41:08 10° NNE visible
30 Jun 6.3 04:25:40 10° NNW 04:31:36 26° NNE 04:38:01 10° E visible
30 Jun 3.5 22:00:00 10° SW 22:05:52 86° NW 22:12:27 10° NE visible
30 Jun 5.9 23:52:58 10° W 23:57:48 23° NNW 00:03:04 10° NNE visible
01 Jul 6.6 01:48:39 10° NNW 01:51:35 13° N 01:54:40 10° NNE visible
01 Jul 6.5 03:40:32 10° NNW 03:45:39 20° NNE 03:51:08 10° ENE visible
01 Jul 5.4 23:06:39 10° W 23:11:59 31° NW 23:17:54 10° NNE visible
02 Jul 6.6 01:02:07 10° NW 01:05:22 14° N 01:08:47 10° NNE visible
02 Jul 6.6 02:55:20 10° NNW 02:59:35 16° NNE 03:04:05 10° NE visible
02 Jul 5.6 04:45:43 10° NNW 04:52:38 41° NE 05:00:12 10° ESE visible
02 Jul 4.7 22:20:40 10° WSW 22:26:22 45° NW 22:32:43 10° NNE visible
03 Jul 6.5 00:15:22 10° NW 00:19:12 16° NNW 00:23:18 10° NNE visible
03 Jul 6.8 02:09:55 10° NNW 02:13:24 14° N 02:17:02 10° NE visible
03 Jul 6.0 04:00:36 10° NNW 04:06:55 30° NE 04:13:48 10° E visible
03 Jul 3.9 21:35:03 10° SW 21:40:54 68° NW 21:47:30 10° NNE visible
03 Jul 6.2 23:28:40 10° WNW 23:33:10 20° NNW 23:38:03 10° NNE visible
04 Jul 6.8 01:24:10 10° NNW 01:27:09 13° N 01:30:16 10° NNE visible
04 Jul 6.4 03:15:29 10° NNW 03:21:04 23° NNE 03:27:04 10° E visible
04 Jul 5.8 22:42:12 10° W 22:47:17 26° NNW 22:52:52 10° NNE visible
05 Jul 6.8 00:37:53 10° NNW 00:40:54 13° N 00:44:04 10° NNE visible
05 Jul 6.6 02:30:20 10° NNW 02:35:03 18° NNE 02:40:05 10° ENE visible
05 Jul 5.1 04:20:40 10° NNW 04:27:50 49° NE 04:35:43 10° ESE visible
05 Jul 5.2 21:56:02 10° WSW 22:01:33 36° NW 22:07:42 10° NNE visible
05 Jul 6.7 23:51:12 10° NW 23:54:42 15° NNW 23:58:24 10° NNE visible
06 Jul 6.7 01:45:03 10° NNW 01:48:55 15° NNE 01:53:01 10° NE visible
06 Jul 5.7 03:35:32 10° NNW 03:42:12 35° NE 03:49:29 10° ESE visible
06 Jul 4.5 21:10:13 10° SW 21:16:01 54° NW 21:22:30 10° NNE visible
06 Jul 6.5 23:04:27 10° WNW 23:08:36 18° NNW 23:13:03 10° NNE visible
07 Jul 6.8 00:59:30 10° NNW 01:02:43 13° N 01:06:03 10° NE visible
07 Jul 6.1 02:50:26 10° NNW 02:56:26 26° NE 03:02:55 10° E visible
07 Jul 4.2 04:40:50 10° NW 04:48:25 83° NE 04:56:43 10° SE visible
07 Jul 6.2 22:17:51 10° W 22:22:37 22° NNW 22:27:50 10° NNE visible
08 Jul 6.7 00:13:31 10° NNW 00:16:28 13° N 00:19:32 10° NNE visible
08 Jul 6.4 02:05:18 10° NNW 02:10:30 20° NNE 02:16:04 10° ENE visible
08 Jul 4.7 03:55:37 10° NNW 04:03:00 59° NE 04:11:06 10° SE visible
08 Jul 5.7 21:31:31 10° W 21:36:49 30° NW 21:42:40 10° NNE visible
08 Jul 6.6 23:27:01 10° NW 23:30:14 14° N 23:33:35 10° NNE visible
